Location: Narrabri
(30.3170°S, 149.7830°E)
Time: 21:25:08
(UTC+11:00)

Envisat - Visible Passes

Search period start: 23 March 2019 00:00
Search period end: 02 April 2019 00:00
Orbit: 764 x 766 km, 98.2° (Epoch: 22 March)

Date Brightness Start Highest point End Pass type
(mag) Time Alt. Az. Time Alt. Az. Time Alt. Az.
23 Mar 6.1 06:29:39 10° E 06:32:04 13° ESE 06:34:29 10° SE visible
23 Mar 2.9 20:20:15 10° SSE 20:25:25 83° ENE 20:30:30 10° N visible
24 Mar 3.6 19:44:01 10° SE 19:48:37 33° E 19:53:09 10° NNE visible
24 Mar 5.4 21:23:29 10° SSW 21:27:21 22° WSW 21:31:12 10° WNW visible
25 Mar 3.8 20:45:53 10° S 20:50:52 52° WSW 20:55:48 10° NNW visible
26 Mar 6.5 06:20:42 10° ESE 06:21:00 10° ESE 06:21:19 10° ESE visible
26 Mar 2.9 20:09:06 10° SSE 20:14:12 63° E 20:19:14 10° N visible
26 Mar 6.1 21:50:50 10° SW 21:52:35 12° WSW 21:54:20 10° W visible
27 Mar 4.0 19:33:09 10° SE 19:37:21 25° E 19:41:31 10° NNE visible
27 Mar 5.0 21:11:54 10° SSW 21:16:14 28° WSW 21:20:31 10° NW visible
28 Mar 5.9 06:42:39 10° ENE 06:46:12 19° ESE 06:49:47 10° SSE visible
28 Mar 3.3 20:34:35 10° S 20:39:42 69° WSW 20:44:44 10° NNW visible
29 Mar 3.2 19:58:00 10° SSE 20:02:58 48° E 20:07:51 10° N visible
29 Mar 5.8 21:38:36 10° SSW 21:41:30 15° WSW 21:44:25 10° WNW visible
30 Mar 4.3 19:22:25 10° SE 19:26:04 19° E 19:29:40 10° NE visible
30 Mar 4.5 21:00:26 10° S 21:05:06 36° WSW 21:09:43 10° NW visible
31 Mar 6.0 06:32:18 10° E 06:35:07 15° ESE 06:37:56 10° SSE visible
31 Mar 2.9 20:23:20 10° SSE 20:28:30 89° WSW 20:33:35 10° NNW visible
01 Apr 3.5 19:47:00 10° SSE 19:51:43 36° E 19:56:23 10° NNE visible
01 Apr 5.5 21:26:47 10° SSW 21:30:25 20° WSW 21:34:02 10° WNW visible
